Location: Unspecified
(48.8582°N, 2.2947°E)
Time: 07:38:25
(UTC+02:00)

ISS - Pass Details

Date: 29 March 2019
Orbit: 408 x 410 km, 51.6° (Epoch: 26 April)

Event Time Altitude Azimuth Distance (km) Brightness Sun altitude
Rises 21:38:21 0° 286° (WNW) 2,339 1.3 -22.5°
Reaches altitude 10° 21:40:28 10° 290° (WNW) 1,476 0.0 -22.7°
Enters shadow 21:43:00 45° 317° (NW) 571 -2.7 -23.1°
